Simultaneous Nadir Overpasses (SNOs) Predictions

Prediction of SNOs between GOES-16 and FY3D Satellite Orbit:

Table of predicted SNOs for the next 14.0 days since TLE Epoch: 4/3/2021
Index Date Time (GOES-16) GOES-16 Lat,Lon FY3D Lat,Lon Distance(km) Time Diff (sec)
1 04/03/2021 06:19:19 -0.04, -75.20 -0.92, -71.38 436.41 80
2 04/04/2021 18:40:56 0.03, -75.20 -0.25, -76.59 157.59 80
3 04/05/2021 18:24:38 0.03, -75.20 0.77, -72.00 365.48 80
4 04/07/2021 06:46:06 -0.02, -75.20 0.40, -77.18 224.59 80
5 04/08/2021 06:24:29 -0.02, -75.21 -0.62, -72.59 298.76 80
6 04/09/2021 18:46:05 0.01, -75.22 -0.54, -77.80 293.92 80
7 04/10/2021 18:29:48 0.01, -75.23 0.49, -73.21 230.17 80
8 04/12/2021 06:51:16 -0.01, -75.25 0.69, -78.39 358.16 80
9 04/13/2021 06:29:39 -0.02, -75.26 -0.33, -73.80 165.91 80
10 04/14/2021 18:51:15 0.01, -75.28 -0.82, -79.02 426.11 80
11 04/15/2021 18:34:57 0.02, -75.29 0.21, -74.43 98.44 80
